SCP
-0 0 -0 -0 0 0 0 0 0 0 0 -0 0 0 0 0 0 0 0 0 -0 -0 -0 -0 -0 -0 -0 -0 -0 -0 -0 0 0 0 0 0 -0 0 -0 -0 -0 0 0
-0 0 0 -0 0 0 0 0 0 0 0 0 0 0 0 0 0 -0 -0 0 -0 0 0 -0 -0 -0 -0 -0 -0 -0 -0 0 0 -0 0 0 -0 -0 -0 -0 -0 0 0
-0 0 0 0 0 0 0 0 0 0 0 0 0 0 0 0 0 0 -0 -0 -0 -0 0 -0 -0 -0 -0 -0 -0 -0 -0 -0 -0 -0 -0 0 0 -0 -0 -0 -0 -0 0
-0 -0 0 0 0 0 0 0 -0 -0 -0 0 0 0 0 0 0 -0 -0 -0 -0 -0 0 -0 -0 -0 0 -0 -0 -0 -0 0 -0 -0 0 0 0 0 -0 -0 -0 -0 -0
-0 -0 -0 0 0 0 0 0 0 0 0 0 0 0 -0 -0 -0 -0 -0 -0 -0 -0 0 0 -0 0 -0 -0 -0 -0 -0 -0 -0 0 0 0 0 0 0 0 0 0 0
-0 -0 -0 0 0 0 0 0 0 0 0 0 0 0 0 0 0 -0 -0 -0 -0 -0 0 0 0 0 0 -0 0 0 0 0 -0 0 0 0 0 0 0 0 0 0 0
0 -0 -0 -0 0 0 0 0 0 0 0 0 0 0 0 0 -0 -0 -0 -0 -0 0 0 0 0 0 0 0 -0 0 0 -0 0 0 0 0 0 0 0 0 0 0 0
0 0 0 0 0 0 0 0 0 0 0 0 0 0 0 0 -0 -0 -0 -0 -0 0 0 0 0 0 0 0 0 0 0 0 0 -0 0 0 0 0 0 0 0 0 0
0 0 0 0 0 0 0 0 0 0 0 0 0 0 0 0 -0 -0 -0 -0 0 0 0 0 0 0 0 0 0 0 0 0 0 0 0 0 0 0 0 0 0 0 0
0 0 0 0 0 0 0 0 0 0 0 0 0 0 0 0 -0 -0 0 0 0 0 0 0 0 0 0 0 0 0 0 0 0 0 0 0 0 0 0 0 0 0 0
0 0 0 0 0 0 0 0 0 0 0 0 0 0 0 0 -0 0 0 0 0 0 0 0 0 0 0 0 0 0 0 0 0 0 0 0 0 0 0 0 0 0 0
0 0 0 0 0 0 0 0 0 0 0 0 0 0 0 0 0 0 0 0 0 0 0 0 0 0 0 0 0 0 0 0 0 0 0 0 0 0 0 0 0 0 0
0 0 0 0 0 0 0 0 0 0 0 0 0 0 0 0 0 0 0 0 0 0 0 0 0 0 0 0 0 0 0 0 0 0 0 0 0 0 0 0 0 0 0
0 0 0 0 0 0 0 0 0 0 0 0 0 0 0 0 0 0 0 0 0 0 0 0 0 0 0 0 0 0 0 0 0 0 0 0 0 0 0 0 0 0 0
0 0 0 0 0 0 0 0 0 0 0 0 0 0 0 0 0 0 0 0 0 0 0 0 0 0 0 0 0 0 0 0 0 0 0 0 0 0 0 0 0 0 0
0 -0 0 0 0 0 0 0 0 0 0 0 0 0 0 0 0 0 0 0 0 0 0 0 0 0 0 0 0 0 0 0 0 0 0 0 0 0 0 0 0 0 0
0 0 0 0 0 0 0 0 0 0 0 0 0 0 0 0 0 0 0 0 0 0 0 0 0 0 0 0 0 0 0 0 0 0 0 0 0 0 0 0 0 0 0
0 0 0 0 0 0 0 0 0 0 0 0 0 0 0 0 0 0 0 0 0 0 0 0 0 0 0 0 0 0 0 0 0 0 0 0 0 0 0 0 0 0 0
0 0 0 0 0 0 0 0 0 0 0 0 0 0 0 0 0 0 0 0 0 0 0 0 0 0 0 0 0 0 0 0 0 0 0 0 0 0 0 0 0 0 0
0 0 0 0 0 0 0 0 0 0 0 0 0 0 0 0 0 0 0 0 0 0 0 0 0 0 0 0 0 0 0 0 0 0 0 0 0 0 0 0 0 0 0
0 0 0 0 0 0 0 0 0 0 0 0 0 0 0 0 0 0 0 0 0 0 0 0 0 0 0 0 0 0 0 0 0 0 0 0 0 0 0 0 0 0 0
0 0 0 0 0 0 0 0 0 0 0 0 0 0 0 0 0 0 0 0 0 0 0 0 0 0 0 0 0 0 0 0 0 0 0 0 0 0 0 0 0 0 0
0 0 0 0 0 0 0 0 0 0 0 0 0 0 0 0 0 0 0 0 0 0 0 0 0 0 0 0 0 0 0 0 0 0 0 0 0 0 0 0 0 0 0
0 0 0 0 0 0 0 0 0 0 0 0 0 0 0 0 0 0 0 0 0 0 0 0 0 0 0 0 0 0 0 0 0 0 0 0 0 0 0 0 0 0 0
0 0 0 0 0 0 0 0 0 0 0 0 0 0 0 0 0 0 0 0 0 0 0 0 0 0 0 0 0 0 0 0 0 0 0 0 0 0 0 0 0 0 0
0 0 0 0 0 0 0 0 0 0 0 0 0 0 0 0 0 0 0 0 0 0 0 0 0 0 0 0 0 0 0 0 0 0 0 0 0 0 0 0 0 0 0
Wind_Speed_500mb
17 27 27 23 23 24 25 27 21 21 24 22 13 10 11 13 13 14 14 15 14 12 14 12 12 13 13 9 10 11 13 13 15 19 18 15 11 15 15 18 16 18 15
22 30 30 25 20 22 23 23 21 26 28 18 13 7 9 12 14 16 17 18 17 17 18 18 18 17 16 14 15 15 14 14 16 19 18 23 11 6 7 8 11 14 12
26 31 29 24 22 23 24 27 25 24 25 17 8 6 8 10 12 14 15 14 15 15 15 15 15 16 16 16 15 15 15 15 15 17 22 21 15 8 3 1 4 6 5
24 33 30 26 25 24 25 25 22 19 18 14 9 7 8 8 9 10 10 9 11 12 12 11 12 12 13 13 12 11 11 11 10 10 12 8 8 9 7 3 2 7 8
24 27 29 26 25 25 24 28 24 17 12 9 6 5 5 5 5 5 6 6 7 8 8 8 9 9 9 9 8 8 7 7 6 8 11 8 5 8 8 8 7 6 9
26 25 25 25 25 24 20 20 20 15 10 6 4 2 1 1 2 3 5 6 7 7 7 7 7 7 7 8 9 9 9 8 6 7 8 14 13 12 12 11 10 9 10
33 26 26 25 25 24 20 17 16 13 9 5 4 4 4 6 6 6 7 8 8 9 11 10 11 11 13 14 14 13 13 13 12 11 11 16 20 16 16 17 17 17 16
31 24 28 25 23 20 20 19 14 10 10 8 7 6 7 10 11 10 12 13 12 13 15 16 16 16 16 18 18 18 17 17 18 18 19 22 24 22 22 23 23 22 21
26 22 30 26 25 21 18 16 18 19 15 12 12 13 13 14 16 16 17 18 17 18 20 22 21 21 21 22 23 23 22 22 22 23 25 25 26 23 25 27 28 27 26
21 17 20 27 24 22 21 19 19 19 17 18 20 22 20 19 19 20 22 21 21 23 25 26 27 26 26 27 26 27 27 26 26 27 25 26 29 27 29 30 31 31 31
21 19 16 16 16 18 19 21 22 23 26 22 25 23 21 19 23 23 23 23 23 25 27 27 28 28 29 28 29 31 30 30 32 32 30 32 33 32 34 35 35 36 35
21 22 20 21 20 17 13 19 19 23 27 25 26 24 22 22 21 20 30 31 28 29 29 28 30 31 33 34 33 34 32 33 33 34 35 37 37 36 39 41 41 40 40
28 18 24 23 23 23 25 26 24 21 24 24 25 26 28 28 28 29 31 31 33 30 32 32 35 35 36 37 36 37 42 43 44 44 42 43 44 40 43 45 45 44 44
27 31 24 26 26 27 27 28 27 27 25 28 28 30 33 34 33 33 34 36 37 38 38 35 37 38 42 44 45 45 45 48 49 49 49 48 50 50 47 49 49 48 48
14 16 25 33 34 30 33 31 30 29 31 31 32 33 35 35 36 35 36 38 38 39 40 43 42 42 45 48 49 49 51 53 53 53 53 52 52 54 50 51 53 53 53
13 15 26 32 31 36 34 33 33 35 33 36 38 36 38 40 38 39 40 41 42 42 42 43 45 47 49 51 55 55 55 55 55 56 57 57 56 56 55 53 54 57 58
11 16 18 23 22 26 36 38 37 34 36 37 39 41 39 42 44 42 43 46 46 46 46 46 47 50 51 51 53 52 54 55 56 56 56 58 58 58 59 60 57 56 59
8 13 20 23 24 29 26 30 37 37 36 37 37 37 41 42 42 44 45 46 47 48 47 49 49 52 55 56 57 59 60 61 63 63 66 67 68 67 66 65 64 64 62
16 17 15 21 30 33 36 29 26 27 31 33 36 36 36 37 43 47 48 48 48 51 53 53 54 54 57 60 61 62 62 62 65 69 74 75 74 75 72 70 69 69 68
5 11 19 22 17 25 30 29 29 31 33 35 36 36 37 38 39 42 46 48 45 48 51 53 54 53 55 58 60 62 66 70 77 76 76 77 73 68 65 63 62 64 65
18 13 7 11 17 15 19 20 26 30 30 31 35 35 38 42 44 45 47 49 50 49 51 53 57 57 60 62 68 73 74 76 83 74 67 55 57 58 59 59 60 62 64
32 31 28 19 7 11 12 11 15 20 19 17 25 27 34 34 32 34 36 39 42 44 45 47 51 57 59 58 60 63 56 61 62 45 46 52 62 58 57 56 66 68 67
39 40 36 34 28 16 2 6 6 12 12 12 14 20 23 26 30 31 32 35 37 40 44 45 48 49 53 52 55 55 36 25 55 67 55 50 63 68 75 75 70 69 78
45 41 42 38 35 34 21 17 15 13 15 18 23 24 26 24 21 24 26 29 32 36 42 43 43 46 49 52 54 57 64 68 66 76 63 73 74 72 71 80 77 86 88
43 44 44 42 43 43 40 35 30 26 23 20 20 20 19 20 20 23 25 27 29 29 30 33 35 38 40 47 51 55 60 67 68 72 78 63 68 79 85 74 94 84 89
40 39 39 38 39 36 35 33 32 31 30 28 29 29 30 30 29 30 32 32 32 33 34 36 38 41 42 44 45 50 55 60 67 73 78 89 78 81 87 83 78 92 93
Wind_Direction_500mb
196 167 146 145 139 148 153 148 141 131 125 133 136 109 95 89 90 95 98 105 106 94 87 85 68 66 85 79 65 72 65 62 58 64 64 64 67 79 89 85 87 69 61
185 161 149 155 143 143 149 151 148 138 131 140 158 125 94 86 87 95 95 95 93 86 84 83 87 87 83 78 71 68 64 60 60 69 57 43 25 52 85 85 82 73 62
179 164 155 154 146 138 140 134 137 143 157 162 152 123 93 86 84 84 82 82 80 75 74 77 79 79 77 74 73 75 73 71 77 82 76 24 7 9 14 106 118 128 110
180 160 157 152 146 142 144 133 129 129 134 145 141 123 101 86 81 80 75 73 72 68 63 60 59 56 55 54 58 62 61 60 67 59 63 123 337 5 1 355 240 219 226
173 156 153 152 150 149 150 145 145 161 147 140 140 119 85 77 73 60 46 37 43 42 40 38 40 35 26 19 22 30 41 46 44 27 31 0 293 339 343 334 332 307 285
155 164 159 155 154 150 154 160 165 168 158 153 153 143 135 26 10 7 357 349 1 1 353 352 356 353 345 340 336 337 341 342 337 321 318 300 294 302 312 308 306 301 298
155 175 168 161 160 161 173 166 167 169 173 195 229 246 269 286 295 309 316 318 323 329 329 327 321 320 320 320 317 317 316 314 312 309 292 290 293 299 301 300 297 293 292
166 179 170 167 168 171 178 181 177 201 222 237 245 261 281 285 286 294 295 293 301 307 307 308 309 307 307 306 306 307 307 304 302 299 296 292 292 297 295 293 293 297 294
181 190 172 173 177 181 189 188 191 209 235 251 257 265 275 285 295 299 297 294 294 295 297 298 299 297 300 301 303 304 302 301 300 298 293 289 293 295 292 292 291 292 293
197 185 180 185 186 191 198 206 212 222 237 247 255 259 263 273 282 288 290 289 289 291 293 295 295 295 296 297 300 299 300 300 300 298 288 293 295 294 291 291 290 288 288
203 180 195 201 205 207 215 219 229 233 238 240 256 267 278 280 284 284 289 284 293 292 293 291 291 292 293 295 296 297 296 302 299 298 303 298 299 296 291 288 286 286 286
202 189 204 210 214 214 226 253 247 248 259 269 277 282 285 288 285 283 288 296 295 293 289 289 289 292 292 294 293 290 299 301 298 301 297 295 297 293 290 289 287 286 286
173 222 210 224 220 224 219 235 258 263 264 271 280 285 286 288 288 285 286 287 288 288 287 285 285 287 290 292 294 297 297 298 295 295 295 295 296 295 291 289 287 285 283
202 194 214 228 236 236 239 245 250 260 263 269 273 271 276 280 280 279 283 291 294 295 294 291 293 295 296 295 293 292 289 288 290 292 291 293 293 293 290 288 286 284 282
238 219 232 225 226 241 249 248 259 260 268 273 274 274 278 280 281 283 286 287 285 286 289 293 294 294 292 293 294 294 294 295 296 294 292 291 289 289 289 286 285 284 283
262 241 232 240 246 228 245 256 255 262 267 273 279 280 281 286 286 286 287 287 287 289 294 292 291 291 292 292 295 296 297 296 295 293 293 292 290 291 291 289 287 285 284
280 269 268 265 267 246 244 246 258 262 262 269 274 279 278 277 282 283 284 285 288 292 292 290 289 289 290 292 293 294 294 294 293 293 293 291 292 293 292 291 288 284 284
231 273 288 275 276 275 267 257 255 260 269 266 266 271 280 284 282 283 283 284 286 287 287 287 289 291 292 293 294 295 295 296 295 295 296 295 295 294 293 292 291 289 285
209 205 229 264 271 275 281 275 265 262 272 268 272 277 276 276 286 290 286 283 283 286 288 289 288 288 290 291 291 291 290 289 290 289 290 291 293 292 292 291 289 288 286
301 240 230 221 239 278 280 278 276 265 265 269 267 269 276 277 277 278 284 289 289 284 285 285 286 287 288 291 290 286 285 284 289 288 290 293 295 294 294 292 290 288 289
36 22 337 257 228 229 278 284 281 280 283 292 291 288 282 279 277 278 277 279 283 284 282 282 284 284 285 288 288 292 294 292 295 301 309 302 299 302 297 293 291 291 292
50 46 41 36 4 233 227 256 281 289 282 305 312 316 308 306 307 306 304 300 295 294 291 290 289 290 294 295 292 298 295 296 298 310 303 301 299 297 294 293 294 290 290
58 53 49 49 49 43 251 272 238 300 331 320 321 312 315 314 316 311 310 309 306 310 308 304 306 304 304 305 301 298 294 287 299 304 306 292 288 292 287 291 288 288 293
63 63 61 57 56 59 61 57 38 14 358 338 322 309 305 306 296 291 298 299 295 296 298 302 304 304 304 303 300 298 295 295 295 299 292 296 288 292 290 291 290 292 293
67 63 64 63 62 60 60 60 61 65 58 44 40 33 27 19 6 0 351 344 338 332 328 323 317 313 304 297 296 297 295 294 298 287 292 292 290 293 294 281 296 291 295
62 59 56 56 55 52 49 46 41 33 25 19 16 10 7 359 353 347 343 341 336 331 327 322 320 316 315 311 309 304 302 300 296 291 289 295 294 293 295 296 287 293 293
Wind_Speed_850mb
17 27 27 23 23 24 25 27 21 21 24 22 13 10 11 13 13 14 14 15 14 12 14 12 12 13 13 9 10 11 13 13 15 19 18 15 11 15 15 18 16 18 15
22 30 30 25 20 22 23 23 21 26 28 18 13 7 9 12 14 16 17 18 17 17 18 18 18 17 16 14 15 15 14 14 16 19 18 23 11 6 7 8 11 14 12
26 31 29 24 22 23 24 27 25 24 25 17 8 6 8 10 12 14 15 14 15 15 15 15 15 16 16 16 15 15 15 15 15 17 22 21 15 8 3 1 4 6 5
24 33 30 26 25 24 25 25 22 19 18 14 9 7 8 8 9 10 10 9 11 12 12 11 12 12 13 13 12 11 11 11 10 10 12 8 8 9 7 3 2 7 8
24 27 29 26 25 25 24 28 24 17 12 9 6 5 5 5 5 5 6 6 7 8 8 8 9 9 9 9 8 8 7 7 6 8 11 8 5 8 8 8 7 6 9
26 25 25 25 25 24 20 20 20 15 10 6 4 2 1 1 2 3 5 6 7 7 7 7 7 7 7 8 9 9 9 8 6 7 8 14 13 12 12 11 10 9 10
33 26 26 25 25 24 20 17 16 13 9 5 4 4 4 6 6 6 7 8 8 9 11 10 11 11 13 14 14 13 13 13 12 11 11 16 20 16 16 17 17 17 16
31 24 28 25 23 20 20 19 14 10 10 8 7 6 7 10 11 10 12 13 12 13 15 16 16 16 16 18 18 18 17 17 18 18 19 22 24 22 22 23 23 22 21
26 22 30 26 25 21 18 16 18 19 15 12 12 13 13 14 16 16 17 18 17 18 20 22 21 21 21 22 23 23 22 22 22 23 25 25 26 23 25 27 28 27 26
21 17 20 27 24 22 21 19 19 19 17 18 20 22 20 19 19 20 22 21 21 23 25 26 27 26 26 27 26 27 27 26 26 27 25 26 29 27 29 30 31 31 31
21 19 16 16 16 18 19 21 22 23 26 22 25 23 21 19 23 23 23 23 23 25 27 27 28 28 29 28 29 31 30 30 32 32 30 32 33 32 34 35 35 36 35
21 22 20 21 20 17 13 19 19 23 27 25 26 24 22 22 21 20 30 31 28 29 29 28 30 31 33 34 33 34 32 33 33 34 35 37 37 36 39 41 41 40 40
28 18 24 23 23 23 25 26 24 21 24 24 25 26 28 28 28 29 31 31 33 30 32 32 35 35 36 37 36 37 42 43 44 44 42 43 44 40 43 45 45 44 44
27 31 24 26 26 27 27 28 27 27 25 28 28 30 33 34 33 33 34 36 37 38 38 35 37 38 42 44 45 45 45 48 49 49 49 48 50 50 47 49 49 48 48
14 16 25 33 34 30 33 31 30 29 31 31 32 33 35 35 36 35 36 38 38 39 40 43 42 42 45 48 49 49 51 53 53 53 53 52 52 54 50 51 53 53 53
13 15 26 32 31 36 34 33 33 35 33 36 38 36 38 40 38 39 40 41 42 42 42 43 45 47 49 51 55 55 55 55 55 56 57 57 56 56 55 53 54 57 58
11 16 18 23 22 26 36 38 37 34 36 37 39 41 39 42 44 42 43 46 46 46 46 46 47 50 51 51 53 52 54 55 56 56 56 58 58 58 59 60 57 56 59
8 13 20 23 24 29 26 30 37 37 36 37 37 37 41 42 42 44 45 46 47 48 47 49 49 52 55 56 57 59 60 61 63 63 66 67 68 67 66 65 64 64 62
16 17 15 21 30 33 36 29 26 27 31 33 36 36 36 37 43 47 48 48 48 51 53 53 54 54 57 60 61 62 62 62 65 69 74 75 74 75 72 70 69 69 68
5 11 19 22 17 25 30 29 29 31 33 35 36 36 37 38 39 42 46 48 45 48 51 53 54 53 55 58 60 62 66 70 77 76 76 77 73 68 65 63 62 64 65
18 13 7 11 17 15 19 20 26 30 30 31 35 35 38 42 44 45 47 49 50 49 51 53 57 57 60 62 68 73 74 76 83 74 67 55 57 58 59 59 60 62 64
32 31 28 19 7 11 12 11 15 20 19 17 25 27 34 34 32 34 36 39 42 44 45 47 51 57 59 58 60 63 56 61 62 45 46 52 62 58 57 56 66 68 67
39 40 36 34 28 16 2 6 6 12 12 12 14 20 23 26 30 31 32 35 37 40 44 45 48 49 53 52 55 55 36 25 55 67 55 50 63 68 75 75 70 69 78
45 41 42 38 35 34 21 17 15 13 15 18 23 24 26 24 21 24 26 29 32 36 42 43 43 46 49 52 54 57 64 68 66 76 63 73 74 72 71 80 77 86 88
43 44 44 42 43 43 40 35 30 26 23 20 20 20 19 20 20 23 25 27 29 29 30 33 35 38 40 47 51 55 60 67 68 72 78 63 68 79 85 74 94 84 89
40 39 39 38 39 36 35 33 32 31 30 28 29 29 30 30 29 30 32 32 32 33 34 36 38 41 42 44 45 50 55 60 67 73 78 89 78 81 87 83 78 92 93
Wind_Direction_850mb
196 167 146 145 139 148 153 148 141 131 125 133 136 109 95 89 90 95 98 105 106 94 87 85 68 66 85 79 65 72 65 62 58 64 64 64 67 79 89 85 87 69 61
185 161 149 155 143 143 149 151 148 138 131 140 158 125 94 86 87 95 95 95 93 86 84 83 87 87 83 78 71 68 64 60 60 69 57 43 25 52 85 85 82 73 62
179 164 155 154 146 138 140 134 137 143 157 162 152 123 93 86 84 84 82 82 80 75 74 77 79 79 77 74 73 75 73 71 77 82 76 24 7 9 14 106 118 128 110
180 160 157 152 146 142 144 133 129 129 134 145 141 123 101 86 81 80 75 73 72 68 63 60 59 56 55 54 58 62 61 60 67 59 63 123 337 5 1 355 240 219 226
173 156 153 152 150 149 150 145 145 161 147 140 140 119 85 77 73 60 46 37 43 42 40 38 40 35 26 19 22 30 41 46 44 27 31 0 293 339 343 334 332 307 285
155 164 159 155 154 150 154 160 165 168 158 153 153 143 135 26 10 7 357 349 1 1 353 352 356 353 345 340 336 337 341 342 337 321 318 300 294 302 312 308 306 301 298
155 175 168 161 160 161 173 166 167 169 173 195 229 246 269 286 295 309 316 318 323 329 329 327 321 320 320 320 317 317 316 314 312 309 292 290 293 299 301 300 297 293 292
166 179 170 167 168 171 178 181 177 201 222 237 245 261 281 285 286 294 295 293 301 307 307 308 309 307 307 306 306 307 307 304 302 299 296 292 292 297 295 293 293 297 294
181 190 172 173 177 181 189 188 191 209 235 251 257 265 275 285 295 299 297 294 294 295 297 298 299 297 300 301 303 304 302 301 300 298 293 289 293 295 292 292 291 292 293
197 185 180 185 186 191 198 206 212 222 237 247 255 259 263 273 282 288 290 289 289 291 293 295 295 295 296 297 300 299 300 300 300 298 288 293 295 294 291 291 290 288 288
203 180 195 201 205 207 215 219 229 233 238 240 256 267 278 280 284 284 289 284 293 292 293 291 291 292 293 295 296 297 296 302 299 298 303 298 299 296 291 288 286 286 286
202 189 204 210 214 214 226 253 247 248 259 269 277 282 285 288 285 283 288 296 295 293 289 289 289 292 292 294 293 290 299 301 298 301 297 295 297 293 290 289 287 286 286
173 222 210 224 220 224 219 235 258 263 264 271 280 285 286 288 288 285 286 287 288 288 287 285 285 287 290 292 294 297 297 298 295 295 295 295 296 295 291 289 287 285 283
202 194 214 228 236 236 239 245 250 260 263 269 273 271 276 280 280 279 283 291 294 295 294 291 293 295 296 295 293 292 289 288 290 292 291 293 293 293 290 288 286 284 282
238 219 232 225 226 241 249 248 259 260 268 273 274 274 278 280 281 283 286 287 285 286 289 293 294 294 292 293 294 294 294 295 296 294 292 291 289 289 289 286 285 284 283
262 241 232 240 246 228 245 256 255 262 267 273 279 280 281 286 286 286 287 287 287 289 294 292 291 291 292 292 295 296 297 296 295 293 293 292 290 291 291 289 287 285 284
280 269 268 265 267 246 244 246 258 262 262 269 274 279 278 277 282 283 284 285 288 292 292 290 289 289 290 292 293 294 294 294 293 293 293 291 292 293 292 291 288 284 284
231 273 288 275 276 275 267 257 255 260 269 266 266 271 280 284 282 283 283 284 286 287 287 287 289 291 292 293 294 295 295 296 295 295 296 295 295 294 293 292 291 289 285
209 205 229 264 271 275 281 275 265 262 272 268 272 277 276 276 286 290 286 283 283 286 288 289 288 288 290 291 291 291 290 289 290 289 290 291 293 292 292 291 289 288 286
301 240 230 221 239 278 280 278 276 265 265 269 267 269 276 277 277 278 284 289 289 284 285 285 286 287 288 291 290 286 285 284 289 288 290 293 295 294 294 292 290 288 289
36 22 337 257 228 229 278 284 281 280 283 292 291 288 282 279 277 278 277 279 283 284 282 282 284 284 285 288 288 292 294 292 295 301 309 302 299 302 297 293 291 291 292
50 46 41 36 4 233 227 256 281 289 282 305 312 316 308 306 307 306 304 300 295 294 291 290 289 290 294 295 292 298 295 296 298 310 303 301 299 297 294 293 294 290 290
58 53 49 49 49 43 251 272 238 300 331 320 321 312 315 314 316 311 310 309 306 310 308 304 306 304 304 305 301 298 294 287 299 304 306 292 288 292 287 291 288 288 293
63 63 61 57 56 59 61 57 38 14 358 338 322 309 305 306 296 291 298 299 295 296 298 302 304 304 304 303 300 298 295 295 295 299 292 296 288 292 290 291 290 292 293
67 63 64 63 62 60 60 60 61 65 58 44 40 33 27 19 6 0 351 344 338 332 328 323 317 313 304 297 296 297 295 294 298 287 292 292 290 293 294 281 296 291 295
62 59 56 56 55 52 49 46 41 33 25 19 16 10 7 359 353 347 343 341 336 331 327 322 320 316 315 311 309 304 302 300 296 291 289 295 294 293 295 296 287 293 293